Voltar ao catálogo

HULIANWANG DIGUI-10

AtivoComunicaçõesPO
NORAD 62332·PAYLOAD·🇨🇳 China

Lançado Dec 16, 2024 de Wenchang Space Launch Site

Loading…

Próximas Passagens (próximas 24 horas)

TLE

AtualizadoSource: Space-Track

Época: Sep 14, 2026, 21:58 UTC

1 62332U 24240K   26257.91578882  .00000027  00000-0  28427-4 0  9994
2 62332  86.5026 313.1873 0001715  86.9455 273.1876 13.24413464 84516

Acompanhe HULIANWANG DIGUI-10 em tempo real com AllMySat

Download on the App Store